Regional Weather Roundup
Issued by NWS Wakefield, VA

Home | Current Version | Previous Version | Graphics & Text | Print | Product List | Glossary On
Versions: 1 2 3 4 5 6 7 8 9 10 11 12 13 14 15 16 17 18 19 20 21 22 23 24 25 26 27 28 29 30 31 32 33 34 35 36 37 38 39 40 41 42 43 44 45 46 47 48 49 50
000
ASUS41 KAKQ 022115
RWRAKQ

REGIONAL WEATHER ROUNDUP
NATIONAL WEATHER SERVICE WAKEFIELD VA
500 PM EDT THU JUL 02 2015

Note: "fair" indicates few or no clouds below 12,000 feet with no
significant weather and/or obstructions to visibility. * = Denotes
station may not report precipitation (e.g., rain,snow,etc.),
thunder or fog.

VAZ042-051-052>054-056-022200-
NORTHERN VIRGINIA

CITY           SKY/WX    TMP DP  RH WIND       PRES   REMARKS
WASH NATIONAL  CLOUDY    77  66  68 NW5       29.90S
DULLES         CLOUDY    74  61  63 N3        29.90F
FORT BELVOIR   CLOUDY    74  65  74 VRB2      29.89F
QUANTICO       CLOUDY    74  66  76 NW6       29.90F
FREDERICKSBRG* CLOUDY    76  67  72 N7        29.89S
STAFFORD*      CLOUDY    72  65  78 NW5       29.94F
WARRENTON      CLOUDY    74  66  76 N3        29.90S
CULPEPER*      CLOUDY    73  65  75 CALM      29.91F
MANASSAS*      NOT AVBL
LEESBURG*      CLOUDY    73  68  83 W6        29.91F
WINCHESTER     CLOUDY    73  66  78 S5        29.92S
FRONT ROYAL*   FAIR      72  66  83 S3        29.91F
LURAY*         FAIR      73  64  73 CALM      29.93F
$$

VAZ048-049-060>072-079>083-022200-
CENTRAL AND SOUTH CENTRAL VIRGINIA

CITY           SKY/WX    TMP DP  RH WIND       PRES   REMARKS
RICHMOND       CLOUDY    79  69  71 N12       29.87R
CHESTERFIELD*  NOT AVBL
PETERSBURG*    LGT RAIN  78  76  95 W8        29.88R
HANOVER        PTSUNNY   76  66  71 N9        29.89S
TAPPAHANNOCK*  CLOUDY    75  62  62 N6        29.89R
QUINTON*       MOCLDY    76  72  86 N6        29.87R
CHARLOTTSVILLE CLOUDY    74  65  73 CALM      29.91F
GORDONSVILLE*  CLOUDY    73  64  73 NE3       29.90F
ORANGE*        CLOUDY    73  64  73 NW3       29.92F
LOUISA*        CLOUDY    75  66  73 NW7       29.90S
BUMPASS*       FAIR      74  65  74 N5        29.89F
FARMVILLE*     LGT RAIN  76  65  68 CALM      29.89S
CREWE*         CLOUDY    75  70  86 N3        29.89S
FORT PICKETT*  CLOUDY    73  72  95 N3        29.89S
CHASE CITY*    CLOUDY    75  75 100 NW7       29.89S
CLARKSVILLE*   CLOUDY    75  70  83 NW6       29.89R
SOUTH HILL*    CLOUDY    73  69  88 S5G12     29.94R
LAWRENCEVILLE* NOT AVBL
EMPORIA*         N/A     81  70  69 SW5       29.86F
$$

VAZ088>098-022200-
SOUTHEAST VIRGINIA

CITY           SKY/WX    TMP DP  RH WIND       PRES   REMARKS
NORFOLK        PTSUNNY   85  68  56 SW9       29.83F
VIRGINIA BEACH PTSUNNY   84  71  65 S12       29.83F
NORFOLK NAVAL  PTSUNNY   85  66  53 SW14G22   29.84F HAZE
WEST POINT*    PTSUNNY   78  73  86 N3        29.87S
SALUDA*        CLOUDY    74  71  92 N9        29.86S
NEWPORT NEWS   PTSUNNY   83  70  64 W7        29.83F
LANGLEY AFB    PTSUNNY   84  71  65 W8        29.82S
FORT EUSTIS    PTSUNNY   81  70  69 N10       29.82S
WILLIAMSBURG*  PTSUNNY   79  73  83 N10G20    29.86R VSB 1/2
HR EXEC AP*    FAIR      86  72  62 SW9       29.85F
FRANKLIN*      MOSUNNY   84  69  61 SW9       29.85S
WAKEFIELD      PTSUNNY   84  68  58 SW7       29.84S HAZE
$$

VAZ020-022-025-037-045-022200-
WEST CENTRAL AND SOUTHWEST VIRGINIA

CITY           SKY/WX    TMP DP  RH WIND       PRES   REMARKS
STAUNTON*      CLOUDY    73  63  69 CALM      29.95F
WAYNESBORO*    MOCLDY    69  63  81 CALM      29.95F
HOT SPRINGS VA DRIZZLE   62  62 100 CALM      30.01F
LYNCHBURG      CLOUDY    73  65  75 N6        29.92F
DANVILLE       LGT RAIN  74  69  85 N9        29.90F
SOUTH BOSTON*  MOCLDY    73  69  88 MISG      29.90S
MARTINSVILLE   CLOUDY    71  71 100 N3        29.95F
ROANOKE        CLOUDY    73  61  65 NW6       29.95F
BLACKSBURG     CLOUDY    69  64  82 CALM      29.99F
DUBLIN*        CLOUDY    70  67  88 N3        29.98F
MARION*        CLOUDY    73  65  77 W9        29.99F
HILLSVILLE*    PTSUNNY   71  64  78 W9        29.97F
RICHLANDS*     CLOUDY    71  66  85 W5        29.97F
WISE*          PTSUNNY   73  61  64 W5        29.98F
ABINGDON*      CLOUDY    72  67  86 W7        29.96F
$$

MDZ021>025-VAZ099-100-022200-
SOUTHERN MARYLAND AND THE DELMARVA PENINSULA

CITY           SKY/WX    TMP DP  RH WIND       PRES   REMARKS
PATUXENT RIVER CLOUDY    73  67  81 N8        29.87S
BAY BRIDGE APT   N/A     72  64  78 N3        29.89F
LEONARDTOWN    CLOUDY    72  63  73 CALM      29.90S
DOVER          CLOUDY    70  68  92 N5        29.86F
GEORGETOWN     CLOUDY    72  67  84 N9        29.88S
EASTON         PTSUNNY   72  72 100 N6        29.93S FOG
CAMBRIDGE      PTSUNNY   72  64  78 NE3       29.87F
SALISBURY      CLOUDY    71  68  90 N9        29.87R
OCEAN CITY     CLOUDY    72  68  87 VRB7      29.86R FOG
WALLOPS ISLAND LGT RAIN  74  73  97 N6        29.87R
ACCOMACK*      NOT AVBL
$$

NCZ012>017-030>032-022200-
NORTH CENTRAL AND EASTERN NORTH CAROLINA

CITY           SKY/WX    TMP DP  RH WIND       PRES   REMARKS
ROANOKE RAPIDS RAIN      79  72  78 SW14G22   29.86F
RALEIGH        PTSUNNY   83  67  58 SW10      29.87F
ELIZABETH CITY PTSUNNY   86  71  60 SW16G25   29.84F
AHOSKIE*       CLOUDY    81  73  76 CALM      29.85F
EDENTON*         N/A     88  68  51 SW8       29.85F
CURRITUCK*     PTSUNNY   85  67  54 SW6       29.84F
KILL DEVIL HLS PTSUNNY   90  68  47 SW9G20    29.84S
MANTEO         PTSUNNY   87  73  63 SW16G26   29.85F
CAPE HATTERAS  MOSUNNY   83  73  72 SW14      29.90F
TARBORO*         N/A     88  68  51 SW8       29.86F
GOLDSBORO      PTSUNNY   87  69  54 SW13G18   29.84F
WASHINGTON     MOSUNNY   87  69  54 SW10G17   29.85F
GREENVILLE     SUNNY     90  68  48 W7G17     29.88F
NEW BERN       MOSUNNY   89  69  51 SW12G21   29.88F
WILMINGTON     MOSUNNY   88  70  55 SW15G26   29.90F
$$

VAZ048-022200-
ELSEWHERE

CITY           SKY/WX    TMP DP  RH WIND       PRES   REMARKS
HARRISBURG PA  CLOUDY    74  64  71 S5        29.89S
BALTIMORE      CLOUDY    73  63  70 SE7       29.89F
ANNAPOLIS      CLOUDY    73  64  73 NE5       29.89F
ANDREWS AFB    CLOUDY    72  67  83 E3        29.89F
PHILADELPHIA   CLOUDY    75  62  64 S3        29.88F
HENDERSON NC   PTSUNNY   77  70  78 S6        29.89F
GREENSBORO     CLOUDY    75  70  84 NE3       29.90S
ROCKY MOUNT    PTSUNNY   89  68  49 W9G18     29.86F
$$

VAZ100-022200-
MARINE

STATION/POSITION TIME  TEMP    WIND        PRES    WAVE   SWELL
                       AIR SEA DIR/SP/G            HT/PER HT/PER
                 (UTC) (F)     (DEG/KT/KT) (MB)    (FT/S) (FT/S)
BRANDYWINE LGT   2000   70 74   60/  8/ 10 1011.9F
CAPE MAY NJ      2000   70 78   30/  5/  7 1011.3F
LEWES DE         2000   70 73   50/ 10/ 11 1011.5F
15NM E FENWICK I 2050   72 73              1010.7R   4/ 8
OCEAN-CITY-INLET 2000   72 75   20/ 10/ 12 1010.7F
WACHAPREAGUE VA  2000   79 83  360/  5/  9 1010.6F
THOMAS POINT MD  2000   71 76   20/  7/  8 1012.9R
GOOSES REEF MD   2100   73 78   40/  8/ 12 1013.1S
COVE POINT MD    2000   72      50/ 12/ 14 1012.4F
SOLOMONS ISLAND  2000      79                N/A
BISHOPS HEAD MD  2000   75      30/  8/ 12 1011.1F
PINEY POINT MD   2000           50/  8/ 10   N/A
CAMBRIDGE MD     2000   71 79   20/  7/  8 1011.6F
LEWISETTA VA     2000   75 80   20/  7/ 10 1011.4R
RAPPAHANNOCK LGT 2000          350/ 17/ 19 1011.2R
STINGRAY PT      2100   76 81   40/ 10/ 12 1010.9F   1/ 2
YORK RVR RNG VA  2000   80     260/ 10/ 13 1009.5F
YORKTOWN VA      2000   81 80  250/  9/ 12 1009.8F
JAMESTOWN VA     2100   75 83  310/  8/ 19   N/A
DOMINION TERM VA 2000   83     250/ 11/ 13 1010.0F
KIPTOPEKE VA     2000      83  230/  9/ 12   N/A
CHES BAY BRIDGE  2000   80 78  170/  7/ 10 1009.8F
CAPE HENRY VA    2000   77      CALM  /  1 1008.7S
CHESAPEAKE LGHT  2000   77     300/ 26/ 29 1011.0F
WILLOUBY STN VA  2000   83     250/ 13/ 14 1010.9F
CAPE HENRY BUOY  2028      78                N/A     3/ 8
1ST LANDING BUOY 2100      78              1009.9F   2/ 4
CAPE CHARLES BUO 2026      73                N/A     3/ 8   2/ 8
OFFSHORE WE BUOY 2011      79                N/A     4/ 8   3/ 8
64NM E OF VA BCH 2050   80 77  200/ 17/ 21 1010.1F   5/ 8   2/ 8
DUCK PIER NC     2000   85 61  220/ 13/ 19 1010.1F
44100 DUCK FRF   2054      78                N/A     3/ 8
44056 DUCK FRF   2011      71                N/A     2/ 8
OREGON INLET NC  2000   83 83  190/ 23/ 26 1011.6F
HATTERAS NC      2000   81 80  210/ 13/ 19 1012.5F
DIAMOND SHLS NC  2050   81 83  210/ 23/ 27 1012.3F   5/ 5   2/ 8
CAPE LOOKOUT NC  2100   83     210/ 14/ 19 1012.5F
$$



USA.gov is the U.S. government's official web portal to all federal, state and local government web resources and services.